Location: Casteau
(50.5142°N, 4.0161°E)
Time: 06:24:11
(UTC+00:00)

Cosmos 2279 Rocket - Pass Details

Date: 18 September 2020
Orbit: 964 x 979 km, 82.9° (Epoch: 22 October)

Event Time Altitude Azimuth Distance (km) Brightness Sun altitude
Exits shadow 20:20:50 47° 104° (ESE) 1,284 4.2 -23.3°
Maximum altitude 20:21:18 47° 90° (E) 1,271 4.2 -23.4°
Drops below altitude 10° 20:27:16 10° 19° (NNE) 2,743 6.5 -24.1°
Sets 20:29:52 0° 14° (NNE) 3,695 7.3 -24.5°
